• In Deutschland
  • Länderverzeichnis
  • Für 7 Tage
  • Wassertemperatur
  • Satellitenkarten
  • Wetterkarte
  • Widgets
  • user-avatar
    Anmelden

    Stündliche Wetter Grevenbroich

    Heute, 22 Juli, Sonntag

    Zeit Temperatur Niederschläge Wind Luftdruck Luftfeuchtigkeit
    00:00 +19°C° 0 mm 2 m/S 752 mmHg 74%
    01:00 +18°C° 0 mm 2 m/S 752 mmHg 77%
    02:00 +18°C° 0 mm 2 m/S 752 mmHg 80%
    03:00 +17°C° 0 mm 2 m/S 753 mmHg 83%
    04:00 +17°C° 0 mm 2 m/S 753 mmHg 80%
    05:00 +18°C° 0 mm 2 m/S 753 mmHg 77%
    06:00 +19°C° 0 mm 2 m/S 753 mmHg 74%
    07:00 +20°C° 0 mm 2 m/S 753 mmHg 66%
    08:00 +23°C° 0 mm 2 m/S 753 mmHg 58%
    09:00 +25°C° 0 mm 2 m/S 753 mmHg 50%
    10:00 +26°C° 0 mm 2 m/S 753 mmHg 47%
    11:00 +27°C° 0 mm 3 m/S 753 mmHg 44%
    12:00 +29°C° 0 mm 3 m/S 753 mmHg 41%
    13:00 +28°C° 0 mm 3 m/S 753 mmHg 43%
    14:00 +28°C° 0 mm 3 m/S 753 mmHg 44%
    15:00 +28°C° 0 mm 3 m/S 753 mmHg 46%
    16:00 +27°C° 0 mm 3 m/S 753 mmHg 48%
    17:00 +27°C° 0 mm 2 m/S 753 mmHg 51%
    18:00 +27°C° 0 mm 2 m/S 753 mmHg 54%
    19:00 +25°C° 0 mm 2 m/S 754 mmHg 57%
    20:00 +24°C° 0 mm 2 m/S 754 mmHg 60%
    21:00 +21°C° 0 mm 2 m/S 755 mmHg 63%
    22:00 +20°C° 0 mm 2 m/S 755 mmHg 65%
    23:00 +19°C° 0 mm 2 m/S 755 mmHg 68%

    Morgen, 23 Juli, Montag

    Zeit Temperatur Niederschläge Wind Luftdruck Luftfeuchtigkeit
    00:00 +18°C° 0 mm 2 m/S 755 mmHg 70%
    01:00 +18°C° 0 mm 2 m/S 755 mmHg 72%
    02:00 +17°C° 0 mm 2 m/S 755 mmHg 74%
    03:00 +18°C° 0 mm 1 m/S 755 mmHg 76%
    04:00 +19°C° 0 mm 1 m/S 755 mmHg 74%
    05:00 +19°C° 0 mm 1 m/S 755 mmHg 71%
    06:00 +20°C° 0 mm 1 m/S 756 mmHg 69%
    07:00 +22°C° 0 mm 1 m/S 756 mmHg 63%
    08:00 +23°C° 0 mm 1 m/S 756 mmHg 57%
    09:00 +25°C° 0 mm 2 m/S 756 mmHg 52%
    10:00 +26°C° 0 mm 2 m/S 755 mmHg 49%
    11:00 +28°C° 0 mm 2 m/S 755 mmHg 47%
    12:00 +29°C° 0 mm 1 m/S 755 mmHg 45%
    13:00 +29°C° 0 mm 2 m/S 755 mmHg 45%
    14:00 +29°C° 0 mm 2 m/S 755 mmHg 44%
    15:00 +30°C° 0 mm 2 m/S 755 mmHg 44%
    16:00 +29°C° 0 mm 1 m/S 755 mmHg 47%
    17:00 +29°C° 0 mm 1 m/S 755 mmHg 49%
    18:00 +29°C° 0 mm 1 m/S 755 mmHg 52%
    19:00 +27°C° 0 mm 1 m/S 755 mmHg 56%
    20:00 +26°C° 0 mm 1 m/S 755 mmHg 60%
    21:00 +24°C° 0 mm 1 m/S 755 mmHg 64%
    22:00 +23°C° 0 mm 1 m/S 755 mmHg 67%
    23:00 +23°C° 0 mm 1 m/S 755 mmHg 70%

    übermorgen, 24 Juli, Dienstag

    Zeit Temperatur Niederschläge Wind Luftdruck Luftfeuchtigkeit
    00:00 +22°C° 0 mm 1 m/S 755 mmHg 73%
    01:00 +22°C° 0 mm 1 m/S 755 mmHg 74%
    02:00 +21°C° 0 mm 1 m/S 755 mmHg 76%
    03:00 +21°C° 0 mm 1 m/S 755 mmHg 78%
    04:00 +22°C° 0 mm 1 m/S 755 mmHg 75%
    05:00 +23°C° 0 mm 1 m/S 755 mmHg 71%
    06:00 +24°C° 0 mm 1 m/S 754 mmHg 68%
    07:00 +26°C° 0 mm 1 m/S 754 mmHg 61%
    08:00 +28°C° 0 mm 1 m/S 754 mmHg 54%
    09:00 +29°C° 0 mm 1 m/S 754 mmHg 48%
    10:00 +30°C° 0 mm 1 m/S 754 mmHg 45%
    11:00 +31°C° 0 mm 1 m/S 754 mmHg 42%
    12:00 +32°C° 0 mm 1 m/S 754 mmHg 38%
    13:00 +32°C° 0 mm 1 m/S 753 mmHg 38%
    14:00 +33°C° 0 mm 1 m/S 753 mmHg 38%
    15:00 +33°C° 0 mm 1 m/S 753 mmHg 37%
    16:00 +32°C° 0 mm 1 m/S 753 mmHg 40%
    17:00 +31°C° 0 mm 1 m/S 753 mmHg 44%
    18:00 +31°C° 0 mm 1 m/S 753 mmHg 47%
    19:00 +29°C° 0 mm 2 m/S 753 mmHg 51%
    20:00 +28°C° 0 mm 2 m/S 753 mmHg 55%
    21:00 +26°C° 0 mm 2 m/S 754 mmHg 59%
    22:00 +26°C° 0 mm 2 m/S 754 mmHg 62%
    23:00 +25°C° 0 mm 2 m/S 754 mmHg 66%

    25 Juli, Mittwoch

    Zeit Temperatur Niederschläge Wind Luftdruck Luftfeuchtigkeit
    00:00 +24°C° 0 mm 2 m/S 754 mmHg 69%
    01:00 +24°C° 0 mm 2 m/S 754 mmHg 70%
    02:00 +23°C° 0 mm 1 m/S 754 mmHg 72%
    03:00 +23°C° 0 mm 1 m/S 754 mmHg 74%
    04:00 +23°C° 0 mm 1 m/S 754 mmHg 71%
    05:00 +24°C° 0 mm 1 m/S 754 mmHg 69%
    06:00 +25°C° 0 mm 1 m/S 754 mmHg 66%
    07:00 +27°C° 0 mm 1 m/S 754 mmHg 60%
    08:00 +29°C° 0 mm 1 m/S 754 mmHg 54%
    09:00 +31°C° 0 mm 1 m/S 754 mmHg 48%
    10:00 +31°C° 0,1 mm 2 m/S 754 mmHg 46%
    11:00 +32°C° 0,1 mm 2 m/S 754 mmHg 43%
    12:00 +34°C° 0,1 mm 2 m/S 753 mmHg 41%
    13:00 +34°C° 0,1 mm 2 m/S 753 mmHg 41%
    14:00 +33°C° 0,1 mm 1 m/S 753 mmHg 41%
    15:00 +33°C° 0,1 mm 1 m/S 753 mmHg 40%
    16:00 +32°C° 0,1 mm 1 m/S 753 mmHg 43%
    17:00 +31°C° 0,1 mm 1 m/S 753 mmHg 46%
    18:00 +31°C° 0,1 mm 1 m/S 753 mmHg 49%
    19:00 +29°C° 0 mm 1 m/S 753 mmHg 53%
    20:00 +28°C° 0 mm 1 m/S 754 mmHg 56%
    21:00 +26°C° 0 mm 1 m/S 754 mmHg 60%
    22:00 +26°C° 0 mm 1 m/S 754 mmHg 63%
    23:00 +25°C° 0 mm 1 m/S 754 mmHg 65%

    26 Juli, Donnerstag

    Zeit Temperatur Niederschläge Wind Luftdruck Luftfeuchtigkeit
    00:00 +25°C° 0 mm 1 m/S 754 mmHg 68%
    01:00 +24°C° 0 mm 1 m/S 754 mmHg 69%
    02:00 +24°C° 0 mm 1 m/S 754 mmHg 71%
    03:00 +23°C° 0 mm 1 m/S 754 mmHg 73%
    04:00 +24°C° 0 mm 1 m/S 754 mmHg 71%
    05:00 +25°C° 0 mm 1 m/S 754 mmHg 69%
    06:00 +26°C° 0 mm 1 m/S 755 mmHg 66%
    07:00 +28°C° 0 mm 1 m/S 755 mmHg 60%
    08:00 +29°C° 0 mm 1 m/S 755 mmHg 54%
    09:00 +31°C° 0 mm 1 m/S 755 mmHg 48%
    10:00 +32°C° 0 mm 1 m/S 755 mmHg 43%
    11:00 +34°C° 0 mm 2 m/S 755 mmHg 39%
    12:00 +35°C° 0 mm 2 m/S 754 mmHg 35%
    13:00 +35°C° 0 mm 2 m/S 754 mmHg 35%
    14:00 +35°C° 0 mm 2 m/S 754 mmHg 35%
    15:00 +34°C° 0 mm 1 m/S 754 mmHg 35%
    16:00 +33°C° 0 mm 1 m/S 754 mmHg 38%
    17:00 +32°C° 0 mm 1 m/S 754 mmHg 41%
    18:00 +31°C° 0 mm 1 m/S 754 mmHg 44%
    19:00 +30°C° 0 mm 1 m/S 755 mmHg 47%
    20:00 +29°C° 0 mm 2 m/S 755 mmHg 49%
    21:00 +28°C° 0 mm 2 m/S 755 mmHg 52%
    22:00 +27°C° 0 mm 2 m/S 755 mmHg 54%
    23:00 +26°C° 0 mm 2 m/S 755 mmHg 57%

    27 Juli, Freitag

    Zeit Temperatur Niederschläge Wind Luftdruck Luftfeuchtigkeit
    00:00 +26°C° 0 mm 2 m/S 755 mmHg 59%
    01:00 +25°C° 0 mm 2 m/S 755 mmHg 61%
    02:00 +25°C° 0 mm 2 m/S 755 mmHg 62%
    03:00 +24°C° 0 mm 1 m/S 755 mmHg 64%
    04:00 +25°C° 0 mm 2 m/S 755 mmHg 62%
    05:00 +26°C° 0 mm 2 m/S 755 mmHg 61%
    06:00 +26°C° 0 mm 2 m/S 755 mmHg 60%
    07:00 +28°C° 0 mm 2 m/S 755 mmHg 53%
    08:00 +30°C° 0 mm 2 m/S 755 mmHg 47%
    09:00 +33°C° 0 mm 3 m/S 755 mmHg 40%
    10:00 +34°C° 0 mm 3 m/S 754 mmHg 37%
    11:00 +35°C° 0 mm 3 m/S 754 mmHg 34%
    12:00 +35°C° 0 mm 3 m/S 754 mmHg 30%
    13:00 +36°C° 0 mm 2 m/S 753 mmHg 30%
    14:00 +36°C° 0 mm 2 m/S 753 mmHg 30%
    15:00 +36°C° 0 mm 2 m/S 753 mmHg 29%
    16:00 +35°C° 0 mm 2 m/S 753 mmHg 32%
    17:00 +34°C° 0 mm 2 m/S 753 mmHg 36%
    18:00 +32°C° 0 mm 2 m/S 753 mmHg 39%
    19:00 +31°C° 0 mm 2 m/S 753 mmHg 43%
    20:00 +29°C° 0 mm 2 m/S 753 mmHg 47%
    21:00 +28°C° 0 mm 2 m/S 753 mmHg 52%
    22:00 +27°C° 0 mm 2 m/S 753 mmHg 54%
    23:00 +26°C° 0 mm 2 m/S 753 mmHg 56%
    Mehr zeigen